This demonstration page uses our WeatherBlox Daily Observations layout. Learn more.

Left ArrowRight Arrow

41.86663, -103.66717

Hourly Observations for October 15, 2018

Temp ( °F °C ) Dew Point ( °F °C ) Humidity (%) Winds ( mph kmh ) Pressure ( in mb ) Visibility ( mi km ) Precip ( " mm )
12:53 am 00:53 Clear 14 -10 11 -11.7 88 88 Calm 30.48 1032 10 16 0.00 0.00
1:53 am 01:53 Clear 9 -12.8 8 -13.3 96 96 Calm 30.50 1033 10 16 0.00 0.00
2:53 am 02:53 Clear 12 -11.1 10 -12.2 92 92 W 3 6 30.48 1032 10 16 0.00 0.00
3:53 am 03:53 Clear 11 -11.7 9 -12.8 92 92 NNW 7 11 30.48 1032 10 16 0.00 0.00
4:53 am 04:53 Clear 11 -11.7 9 -12.8 92 92 N 7 11 30.48 1032 10 16 0.00 0.00
5:53 am 05:53 Clear 11 -11.7 9 -12.8 92 92 WNW 6 9 30.49 1033 10 16 0.00 0.00
6:53 am 06:53 Clear 11 -11.7 9 -12.8 92 92 NW 5 7 30.50 1033 10 16 0.00 0.00
7:53 am 07:53 Sunny 12 -11.1 9 -12.8 87 87 NW 8 13 30.50 1033 10 16 0.00 0.00
8:53 am 08:53 Sunny 17 -8.3 14 -10 88 88 WNW 8 13 30.50 1033 10 16 0.00 0.00
9:53 am 09:53 Sunny 23 -5 18 -7.8 81 81 WSW 5 7 30.49 1033 10 16 0.00 0.00
10:53 am 10:53 Sunny 27 -2.8 19 -7.2 72 72 NW 9 15 30.48 1032 10 16 0.00 0.00
11:53 am 11:53 Sunny 32 0 23 -5 69 69 NW 9 15 30.47 1032 10 16 0.00 0.00
12:53 pm 12:53 Sunny 35 1.7 26 -3.3 70 70 WSW 7 11 30.44 1031 10 16 0.00 0.00
1:53 pm 13:53 Sunny 39 3.9 27 -2.8 62 62 W 8 13 30.42 1030 10 16 0.00 0.00
2:53 pm 14:53 Sunny 41 5 27 -2.8 57 57 W 10 17 30.39 1029 10 16 0.00 0.00
3:53 pm 15:53 Sunny 43 6.1 28 -2.2 56 56 W 6 9 30.37 1029 10 16 0.00 0.00
4:53 pm 16:53 Sunny 44 6.7 31 -0.6 60 60 W 5 7 30.35 1028 10 16 0.00 0.00
5:53 pm 17:53 Sunny 42 5.6 29 -1.7 60 60 W 7 11 30.36 1028 10 16 0.00 0.00
6:53 pm 18:53 Clear 37 2.8 29 -1.7 73 73 N 5 7 30.38 1029 10 16 0.00 0.00
7:53 pm 19:53 Clear 34 1.1 29 -1.7 82 82 N 6 9 30.39 1029 10 16 0.00 0.00
8:53 pm 20:53 Clear 34 1.1 28 -2.2 79 79 NW 7 11 30.37 1029 10 16 0.00 0.00
9:53 pm 21:53 Clear 32 0 28 -2.2 85 85 NW 7 11 30.37 1029 10 16 0.00 0.00
10:53 pm 22:53 Clear 33 0.6 28 -2.2 82 82 WNW 5 7 30.37 1029 10 16 0.00 0.00
11:53 pm 23:53 Clear 31 -0.6 27 -2.8 85 85 W 5 7 30.36 1028 10 16 0.00 0.00

Powered by AerisWeather